Tracking 29487 objects as of 10-Sep-2024
HD Live streaming from Space Station
objects crossing your sky now

USA 160

Track USA 160 now!
10-day predictions
USA 160 is classified as:


NORAD ID: 26905
Int'l Code: 2001-040A
Perigee: 662.1 km
Apogee: 1,561.8 km
Inclination: 63.4 °
Period: 107.4 minutes
Semi major axis: 7482 km
RCS: Unknown
Launch date: September 8, 2001
Source: United States (US)
Launch site: AIR FORCE WESTERN TEST RANGE (AFWTR)
Your satellite tracking list
Your tracking list is empty




NASA's NSSDC Master Catalog

Two Line Element Set (TLE):
1 26905U 01040A   24241.79499277 0.00000600  00000-0  36656-3 0    02
2 26905  63.3771 140.7930 0601213   8.0861 351.9139 13.41198276    04
Source of the keplerian elements: McCants